Flag for Germany Weather past 2 weeks in Cottbus, Brandenburg, Germany

Now
68 °F

Overcast.


Feels Like: 68 °F
Forecast: 59 / 85 °F
Wind: 1 mph from Northeast

Location: Cottbus

Current Time: Jul 25, 2014 at 9:10:08 PM

Latest Report: Jul 25, 2014 at 8:00 PM


Visibility: 5 mi

Pressure: 29.92 "Hg

Humidity: 93%

Dew point: 66 °F

Location of CottbusLocation

Historic Weather in Cottbus — Graph

°F

Cottbus temperature yesterday

Maximum temperature yesterday: 68 °F (at 1:00 PM)
Minimum temperature yesterday: 59 °F (at 6:00 AM)
Average temperature yesterday: 63 °F

Past Weeks' High & Low Weather Summary

 TemperatureHumidityPressure
High95 °F (Jul 20, 4:00 PM)98% (Jul 13, 5:00 AM)30.16 "Hg (Jul 13, 5:00 AM)
Low51 °F (Jul 13, 6:00 AM)24% (Jul 20, 4:00 PM)29.73 "Hg (Jul 13, 7:00 PM)
Average71 °F66%29.94 "Hg
* Reported Jul 10 8:00 PM — Jul 25 8:00 PM, Cottbus, Weather by CustomWeather, © 2014

Note: Actual official high and low records may vary slightly from our data, if they occured in-between our weather recording intervals... More about our weather records

Advertising

Cottbus weather history for previous 24 hours

 ConditionsComfort  
Time TempWeatherWind HumidityBarometerVisibility
8:00 PM
Jul 25
68 °FOvercast.1 mph93%29.92 "Hg5 mi
7:00 PM69 °FOvercast.1 mph87%29.92 "Hg9 mi
6:00 PM68 °FLight rain. Low clouds.1 mph90%29.92 "Hg8 mi
5:00 PM71 °FLight rain. Overcast.2 mph71%29.93 "Hg19 mi
4:00 PM73 °FOvercast.3 mph71%29.91 "Hg13 mi
3:00 PM73 °FOvercast.2 mph76%29.92 "Hg12 mi
2:00 PM69 °FLight rain. Low clouds.2 mph86%29.93 "Hg5 mi
1:00 PM69 °FOvercast.2 mph78%29.93 "Hg13 mi
12:00 PM69 °FOvercast.2 mph80%29.93 "Hg11 mi
11:00 AM67 °FOvercast.3 mph84%29.94 "Hg9 mi
10:00 AM66 °FLow clouds.2 mph90%29.94 "Hg4 mi
9:00 AM65 °FLight rain. Low clouds.2 mph93%29.94 "Hg3 mi
8:00 AM64 °FFog.3 mph95%29.94 "Hg2 mi
7:00 AM64 °FLow clouds.3 mph96%29.93 "Hg2 mi
6:00 AM64 °FLow clouds.2 mph96%29.93 "Hg2 mi
5:00 AM64 °FFog.3 mph96%29.93 "Hg3 mi
4:00 AM63 °FFog.2 mph95%29.92 "Hg4 mi
3:00 AM62 °FPassing clouds.2 mph95%29.93 "Hg4 mi
2:00 AM62 °FDrizzle. Overcast.2 mph95%29.94 "Hg4 mi
1:00 AM62 °FDrizzle. Overcast.2 mph94%29.94 "Hg6 mi
12:00 AM62 °FDrizzle. Overcast.2 mph96%29.96 "Hg4 mi
11:00 PM
Jul 24
62 °FLight rain. Overcast.3 mph95%29.96 "Hg3 mi
10:00 PM62 °FRain. Low clouds.3 mph95%29.96 "Hg2 mi
9:00 PM62 °FLight freezing rain. Low clouds.3 mph94%29.95 "Hg4 mi
Weather by CustomWeather, © 2014

See weather overviewHow to use our weather pages